STARLINK-3004 (48880 NORAD) Tracking and Keplerian Element Data

This shows tracking and keplerian element data for the satellite.

Feedback or suggestion? Click here.




ElementValue
Catalog48880
NameSTARLINK-3004
Epoch Orbit1449
Epoch Day269.25001157
Epoch Year2021
RAAN37.1551
Inclination97.5208
Eccentricity0.0009185
Argument of Perigee348.1368
Mean Anonmoly13.0437
Mean Motion15.16053649
Decay Rate0.0006023
L11 48880U 21059B 21269.25001157 .00060230 00000-0 31084-2 0 9995
L22 48880 97.5208 37.1551 0009185 348.1368 13.0437 15.16053649 14495

Live tracking and technical data element details for STARLINK-3004 (NORAD 48880). STARLINK-3004 can be tracked NOW for your location showing map with azimuth and elevation plus other details from your city location.

Track the satellite on the map from your city or location and see movement details for azimuth, elevation, latitude, longitude, range, height, and movement on the map or in text.







IsCatalogInMostPopularTable: catalog: 48880, numindb: 19
Update: records affected: 1



GetName: 48880 STARLINK-3004

Hit Count: updated at: Sun, 26 Sep 2021 15:01:05 GMT